Tracking 19817 objects as of 18-Aug-2019
HD Live streaming from Space Station
objects crossing your sky now

COSMOS 2251 DEB

Track COSMOS 2251 DEB now!
10-day predictions


NORAD ID: 34449
Int'l Code: 1993-036SS
Perigee: 695.6 km
Apogee: 792.1 km
Inclination: 74.1 °
Period: 99.5 minutes
Semi major axis: 7114 km
RCS: 0.033 m2 (small)
Launch date: June 16, 1993
Source: Commonwealth of Independent States (former USSR) (CIS)
Launch site: PLESETSK MISSILE AND SPACE COMPLEX (PKMTR)

Note: This is SATELLITE DEBRIS
aabbcc
Your satellite tracking list
Your tracking list is empty




NASA's NSSDC Master Catalog

Two Line Element Set (TLE):
1 34449U 93036SS  19228.90729141 +.00000641 +00000-0 +18010-3 0  9994
2 34449 074.0523 134.3350 0067828 055.9834 073.3025 14.46610934550537
Source of the keplerian elements: AFSPC